User: anonymous   Login
Location: Norwich
(52.6280°N, 1.3030°E)
Time: 23:33:01
(UTC+01:00)
Language:

APEX - Orbit

View from above orbital plane
View from above orbital plane
View from above satellite
View from above satellite

Ground track
Ground track

The orbit data is extracted from the following two-line orbital elements,

1 23191U 94046A   16126.90199300 +.00011411 +00000-0 +40814-3 0  9994
2 23191 069.9262 078.0986 0630649 089.4199 277.9106 14.30675448058106
Epoch (UTC): 05 May 2016 21:38:52
Eccentricity: 0.0630649
inclination: 69.9262°
perigee height: 337 km
apogee height: 1241 km
right ascension of ascending node: 78.0986°
argument of perigee: 89.4199°
revolutions per day: 14.30675448
mean anomaly at epoch: 277.9106°
orbit number at epoch: 5810

The dashed part of the orbit path shows where the satellite is in the earth's shadow,  

DLR